Perm/Bolshoye Savino International Airport

Airport
ICAO code: 
USPP
IATA Code: 
PEE
Summary
ICAO Region: 
EUR
Territory: 
Location: 
Bolshoye Savino, Permskiy Kray
Serving: 
Perm
Elevation: 
123 ft
Coordinates: 
Aerial View: 
57° 55' 10.931" N, 56° 1' 9.289" E
Metar
Observation
USPP 241700Z 26003MPS 230V290 CAVOK M11/M13 Q1031 R21/090060 TEMPO BKN003 RMK QFE762
Station
Perm'/Bolshoe Savino
Date/Time
2022-01-24 17:00:00
Wind direction
260°
Lowest cloud amount
broken clouds
Temperature
-11°C
Dew point
-13°C
Humidity
85%
QNH
1031 hPa
Weather condition
n/a

Description

Perm International Airport is an international airport located in Perm Krai, Russia located 16 kilometres southwest of Perm, in the village of Bolshoye Savino.

Runways

Designator Length Width Surface Rops
3/21 3206 49 CON Yes/Yes
Airport map: 
Aerial View: 

Accidents and Serious Incidents at or in the vicinity of USPP

SKYbrary Partners:

Safety knowledge contributed by: